Private Wetterstation Wechselburg
Wetterdaten: Sonntag, 27.11.2011
Datum Zeit Temp. +2m Bodentemp. Temp.+5cm Temp. Wind Windchill X Diff Temp. Feuchte +2m Feuchte +5cm Sonnenschein Luftdruck Regen Wind Richtung Richtung Sonnenschein UV Taupunkt Windchill Windben
27.11.2011 00:00 6,5 C 10,2 C 6,4 C 5,9 C 4,8 C 0,0 C 79 % 81 % 0 % 1024,6 hPa 0,0 l/m 7,2 km/h (2 Bft) O 90 0 min 0,0 UV-I 3,1 C 3,1 C 3,4 km/h (1 Bft)
27.11.2011 00:04 6,4 C 10,2 C 6,3 C 6,0 C 5,1 C 0,0 C 79 % 81 % 0 % 1024,6 hPa 0,0 l/m 5,6 km/h (1 Bft) W-NW 292 0 min 0,0 UV-I 3,0 C 4,0 C 9,2 km/h (2 Bft)
27.11.2011 00:09 6,4 C 10,2 C 6,3 C 5,9 C 4,9 C 0,0 C 79 % 82 % 0 % 1024,6 hPa 0,0 l/m 6,1 km/h (2 Bft) S 180 0 min 0,0 UV-I 3,0 C 3,6 C 7,2 km/h (2 Bft)
27.11.2011 00:14 6,4 C 10,2 C 6,4 C 6,0 C 5,2 C 0,0 C 79 % 82 % 0 % 1024,6 hPa 0,0 l/m 6,4 km/h (2 Bft) W-SW 247 0 min 0,0 UV-I 3,0 C 3,8 C 10,5 km/h (2 Bft)
27.11.2011 00:19 6,4 C 10,2 C 6,4 C 6,1 C 5,4 C 0,0 C 79 % 82 % 0 % 1024,7 hPa 0,0 l/m 6,1 km/h (2 Bft) W-SW 247 0 min 0,0 UV-I 3,0 C 4,2 C 12,9 km/h (3 Bft)
27.11.2011 00:25 6,4 C 10,2 C 6,5 C 6,2 C 5,7 C 0,0 C 79 % 82 % 0 % 1024,7 hPa 0,0 l/m 6,1 km/h (2 Bft) S-SO 157 0 min 0,0 UV-I 3,0 C 4,5 C 4,2 km/h (1 Bft)
27.11.2011 00:30 6,5 C 10,2 C 6,4 C 6,1 C 5,3 C 0,0 C 79 % 82 % 0 % 1024,7 hPa 0,0 l/m 7,4 km/h (2 Bft) W-SW 247 0 min 0,0 UV-I 3,1 C 3,6 C 11,9 km/h (2 Bft)
27.11.2011 00:35 6,5 C 10,2 C 6,4 C 6,2 C 5,2 C 0,0 C 79 % 82 % 0 % 1024,7 hPa 0,0 l/m 7,9 km/h (2 Bft) S 180 0 min 0,0 UV-I 3,1 C 3,4 C 6,6 km/h (2 Bft)
27.11.2011 00:40 6,5 C 10,2 C 6,4 C 6,2 C 5,6 C 0,0 C 79 % 82 % 0 % 1024,9 hPa 0,0 l/m 7,1 km/h (2 Bft) S-SO 157 0 min 0,0 UV-I 3,1 C 4,1 C 21,2 km/h (4 Bft)
27.11.2011 00:45 6,5 C 10,2 C 6,4 C 6,4 C 6,1 C 0,0 C 79 % 82 % 0 % 1024,9 hPa 0,0 l/m 5,5 km/h (1 Bft) S-SO 157 0 min 0,0 UV-I 3,1 C 5,2 C 5,0 km/h (1 Bft)
27.11.2011 00:50 6,5 C 10,2 C 6,5 C 6,3 C 5,8 C 0,0 C 79 % 82 % 0 % 1024,9 hPa 0,0 l/m 6,1 km/h (2 Bft) W-SW 247 0 min 0,0 UV-I 3,1 C 4,6 C 7,7 km/h (2 Bft)
27.11.2011 00:55 6,5 C 10,2 C 6,4 C 6,3 C 5,8 C 0,0 C 79 % 82 % 0 % 1024,9 hPa 0,0 l/m 6,1 km/h (2 Bft) W-SW 247 0 min 0,0 UV-I 3,1 C 4,6 C 7,2 km/h (2 Bft)
27.11.2011 01:00 6,5 C 10,2 C 6,4 C 6,2 C 5,6 C 0,0 C 79 % 82 % 0 % 1024,8 hPa 0,0 l/m 6,4 km/h (2 Bft) S-SO 157 0 min 0,0 UV-I 3,1 C 4,3 C 22,2 km/h (4 Bft)
27.11.2011 01:06 6,5 C 10,2 C 6,4 C 6,4 C 6,1 C 0,0 C 79 % 82 % 0 % 1024,8 hPa 0,0 l/m 5,0 km/h (1 Bft) N 0 0 min 0,0 UV-I 3,1 C 5,3 C 8,5 km/h (2 Bft)
27.11.2011 01:20 6,5 C 10,2 C 6,5 C 6,4 C 6,2 C 0,0 C 79 % 82 % 0 % 1024,8 hPa 0,0 l/m 5,0 km/h (1 Bft) W-SW 247 0 min 0,0 UV-I 3,1 C 5,4 C 11,9 km/h (2 Bft)
27.11.2011 01:25 6,5 C 10,2 C 6,5 C 6,4 C 6,1 C 0,0 C 79 % 82 % 0 % 1024,8 hPa 0,0 l/m 5,3 km/h (1 Bft) W 270 0 min 0,0 UV-I 3,1 C 5,2 C 10,0 km/h (2 Bft)
27.11.2011 01:30 6,6 C 10,2 C 6,5 C 6,5 C 6,2 C 0,0 C 79 % 82 % 0 % 1024,8 hPa 0,0 l/m 5,1 km/h (1 Bft) SO 135 0 min 0,0 UV-I 3,2 C 5,4 C 6,3 km/h (2 Bft)
27.11.2011 01:35 6,6 C 10,2 C 6,5 C 6,4 C 5,9 C 0,0 C 79 % 82 % 0 % 1024,8 hPa 0,0 l/m 5,8 km/h (2 Bft) NO 45 0 min 0,0 UV-I 3,2 C 4,8 C 10,5 km/h (2 Bft)
27.11.2011 01:40 6,6 C 10,2 C 6,5 C 6,3 C 5,7 C 0,0 C 79 % 82 % 0 % 1024,5 hPa 0,0 l/m 6,6 km/h (2 Bft) W 270 0 min 0,0 UV-I 3,2 C 4,3 C 8,7 km/h (2 Bft)
27.11.2011 01:45 6,7 C 10,2 C 6,5 C 6,5 C 5,3 C 0,0 C 79 % 82 % 0 % 1024,5 hPa 0,0 l/m 8,4 km/h (2 Bft) W-SW 247 0 min 0,0 UV-I 3,3 C 3,4 C 13,0 km/h (3 Bft)
27.11.2011 01:50 6,6 C 10,2 C 6,6 C 6,4 C 5,4 C 0,0 C 79 % 81 % 0 % 1024,5 hPa 0,0 l/m 7,7 km/h (2 Bft) W-SW 247 0 min 0,0 UV-I 3,2 C 3,7 C 10,9 km/h (2 Bft)
27.11.2011 01:55 6,7 C 10,2 C 6,7 C 6,4 C 5,3 C 0,0 C 78 % 81 % 0 % 1024,5 hPa 0,0 l/m 7,9 km/h (2 Bft) W-SW 247 0 min 0,0 UV-I 3,1 C 3,5 C 12,1 km/h (2 Bft)
27.11.2011 02:00 6,6 C 10,2 C 6,6 C 6,3 C 4,9 C 0,0 C 78 % 81 % 0 % 1023,9 hPa 0,0 l/m 9,8 km/h (2 Bft) W-SW 247 0 min 0,0 UV-I 3,0 C 2,6 C 26,4 km/h (4 Bft)
27.11.2011 02:04 6,7 C 10,2 C 6,5 C 5,7 C 4,6 C 0,0 C 78 % 81 % 0 % 1023,9 hPa 0,0 l/m 10,5 km/h (2 Bft) W 270 0 min 0,0 UV-I 3,1 C 2,1 C 8,7 km/h (2 Bft)
27.11.2011 02:09 6,5 C 10,2 C 6,5 C 6,1 C 4,9 C 0,0 C 78 % 81 % 0 % 1023,9 hPa 0,0 l/m 8,0 km/h (2 Bft) S 180 0 min 0,0 UV-I 2,9 C 3,0 C 6,9 km/h (2 Bft)
27.11.2011 02:14 6,4 C 10,2 C 6,3 C 5,9 C 4,9 C 0,0 C 78 % 81 % 0 % 1023,9 hPa 0,0 l/m 6,8 km/h (2 Bft) NW 315 0 min 0,0 UV-I 2,8 C 3,4 C 9,2 km/h (2 Bft)
27.11.2011 02:18 6,4 C 10,2 C 6,3 C 5,9 C 4,9 C 0,0 C 78 % 81 % 0 % 1023,9 hPa 0,0 l/m 6,8 km/h (2 Bft) NW 315 0 min 0,0 UV-I 2,8 C 3,4 C 9,2 km/h (2 Bft)
27.11.2011 02:25 6,4 C 10,2 C 6,3 C 6,0 C 4,2 C 0,0 C 78 % 81 % 0 % 1023,5 hPa 0,0 l/m 9,8 km/h (2 Bft) W-SW 247 0 min 0,0 UV-I 2,8 C 1,7 C 12,2 km/h (2 Bft)
27.11.2011 02:30 6,5 C 10,3 C 6,3 C 6,0 C 4,6 C 0,0 C 78 % 81 % 0 % 1023,5 hPa 0,0 l/m 8,0 km/h (2 Bft) S 180 0 min 0,0 UV-I 2,9 C 2,7 C 18,2 km/h (3 Bft)
27.11.2011 02:35 6,3 C 10,3 C 6,2 C 5,7 C 4,6 C 0,0 C 78 % 81 % 0 % 1023,5 hPa 0,0 l/m 7,2 km/h (2 Bft) NO 45 0 min 0,0 UV-I 2,8 C 2,9 C 5,8 km/h (2 Bft)
27.11.2011 02:40 6,3 C 10,3 C 6,1 C 5,8 C 4,9 C 0,0 C 78 % 81 % 0 % 1024,2 hPa 0,0 l/m 6,1 km/h (2 Bft) O 90 0 min 0,0 UV-I 2,8 C 3,6 C 2,7 km/h (1 Bft)
27.11.2011 02:45 6,3 C 10,3 C 6,1 C 5,9 C 5,2 C 0,0 C 78 % 81 % 0 % 1024,2 hPa 0,0 l/m 5,3 km/h (1 Bft) W-SW 247 0 min 0,0 UV-I 2,8 C 4,2 C 11,1 km/h (2 Bft)
27.11.2011 02:50 6,2 C 10,3 C 6,0 C 5,8 C 4,9 C 0,0 C 78 % 81 % 0 % 1024,2 hPa 0,0 l/m 5,8 km/h (2 Bft) SW 225 0 min 0,0 UV-I 2,7 C 3,7 C 11,1 km/h (2 Bft)
27.11.2011 02:55 6,3 C 10,3 C 6,0 C 5,7 C 4,6 C 0,0 C 78 % 81 % 0 % 1024,2 hPa 0,0 l/m 6,0 km/h (2 Bft) W-SW 247 0 min 0,0 UV-I 2,8 C 3,3 C 5,8 km/h (2 Bft)
27.11.2011 03:00 6,2 C 10,3 C 6,0 C 5,7 C 4,8 C 0,0 C 78 % 81 % 0 % 1023,6 hPa 0,0 l/m 5,5 km/h (1 Bft) S 180 0 min 0,0 UV-I 2,7 C 3,7 C 9,3 km/h (2 Bft)
27.11.2011 03:10 6,1 C 10,3 C 5,9 C 5,6 C 4,7 C 0,0 C 78 % 81 % 0 % 1023,6 hPa 0,0 l/m 5,1 km/h (1 Bft) N 0 0 min 0,0 UV-I 2,6 C 3,7 C 14,5 km/h (3 Bft)
27.11.2011 03:20 5,9 C 10,3 C 5,7 C 5,5 C 4,7 C 0,0 C 78 % 81 % 0 % 1023,6 hPa 0,0 l/m 5,0 km/h (1 Bft) SO 135 0 min 0,0 UV-I 2,4 C 3,7 C 6,6 km/h (2 Bft)
27.11.2011 03:25 5,9 C 10,3 C 5,7 C 5,5 C 4,6 C 0,0 C 78 % 81 % 0 % 1023,6 hPa 0,0 l/m 4,8 km/h (1 Bft) S-SW 202 0 min 0,0 UV-I 2,4 C 3,7 C 9,0 km/h (2 Bft)
27.11.2011 03:30 5,9 C 10,3 C 5,7 C 5,4 C 4,3 C 0,0 C 78 % 81 % 0 % 1023,6 hPa 0,0 l/m 5,3 km/h (1 Bft) O-NO 67 0 min 0,0 UV-I 2,4 C 3,2 C 6,0 km/h (2 Bft)
27.11.2011 03:35 5,8 C 10,3 C 5,6 C 5,3 C 4,2 C 0,0 C 79 % 81 % 0 % 1023,6 hPa 0,0 l/m 5,6 km/h (1 Bft) S 180 0 min 0,0 UV-I 2,4 C 2,9 C 6,0 km/h (2 Bft)
27.11.2011 03:40 5,7 C 10,3 C 5,6 C 5,2 C 4,3 C 0,0 C 79 % 81 % 0 % 1023,1 hPa 0,0 l/m 5,8 km/h (2 Bft) S 180 0 min 0,0 UV-I 2,3 C 3,0 C 4,0 km/h (1 Bft)
27.11.2011 03:45 5,7 C 10,3 C 5,7 C 5,4 C 4,7 C 0,0 C 79 % 81 % 0 % 1023,1 hPa 0,0 l/m 5,6 km/h (1 Bft) S-SO 157 0 min 0,0 UV-I 2,3 C 3,5 C 11,3 km/h (2 Bft)
27.11.2011 03:50 5,7 C 10,3 C 5,7 C 5,3 C 4,4 C 0,0 C 79 % 81 % 0 % 1023,1 hPa 0,0 l/m 6,4 km/h (2 Bft) S 180 0 min 0,0 UV-I 2,3 C 2,9 C 12,2 km/h (2 Bft)
27.11.2011 03:55 5,8 C 10,3 C 5,7 C 5,5 C 4,2 C 0,0 C 79 % 81 % 0 % 1023,1 hPa 0,0 l/m 7,7 km/h (2 Bft) S-SO 157 0 min 0,0 UV-I 2,4 C 2,3 C 9,0 km/h (2 Bft)
27.11.2011 04:00 5,9 C 10,3 C 5,7 C 5,5 C 4,3 C 0,0 C 79 % 81 % 0 % 1023,1 hPa 0,0 l/m 8,0 km/h (2 Bft) S 180 0 min 0,0 UV-I 2,5 C 2,3 C 13,4 km/h (3 Bft)
27.11.2011 04:10 5,7 C 10,3 C 5,7 C 5,5 C 4,5 C 0,0 C 78 % 81 % 0 % 1023,1 hPa 0,0 l/m 7,7 km/h (2 Bft) N 0 0 min 0,0 UV-I 2,2 C 2,6 C 14,5 km/h (3 Bft)
27.11.2011 04:20 5,7 C 10,3 C 5,7 C 5,4 C 4,9 C 0,0 C 78 % 81 % 0 % 1022,4 hPa 0,0 l/m 6,1 km/h (2 Bft) S 180 0 min 0,0 UV-I 2,2 C 3,6 C 13,4 km/h (3 Bft)
27.11.2011 04:25 5,9 C 10,3 C 5,9 C 5,6 C 5,0 C 0,0 C 78 % 80 % 0 % 1022,4 hPa 0,0 l/m 6,0 km/h (2 Bft) N 360 0 min 0,0 UV-I 2,4 C 3,7 C 4,3 km/h (1 Bft)
27.11.2011 04:30 5,9 C 10,3 C 5,9 C 5,5 C 4,8 C 0,0 C 78 % 80 % 0 % 1022,4 hPa 0,0 l/m 6,6 km/h (2 Bft) SW 225 0 min 0,0 UV-I 2,4 C 3,3 C 11,9 km/h (2 Bft)
27.11.2011 04:35 5,9 C 10,3 C 5,9 C 5,5 C 4,8 C 0,0 C 78 % 80 % 0 % 1022,4 hPa 0,0 l/m 6,9 km/h (2 Bft) S 180 0 min 0,0 UV-I 2,4 C 3,2 C 6,9 km/h (2 Bft)
27.11.2011 04:40 5,9 C 10,3 C 5,9 C 5,6 C 4,9 C 0,0 C 78 % 80 % 0 % 1022,2 hPa 0,0 l/m 6,6 km/h (2 Bft) N-NO 22 0 min 0,0 UV-I 2,4 C 3,4 C 7,1 km/h (2 Bft)
27.11.2011 04:45 5,8 C 10,3 C 5,8 C 5,6 C 4,6 C 0,0 C 77 % 80 % 0 % 1022,2 hPa 0,0 l/m 7,7 km/h (2 Bft) S-SO 157 0 min 0,0 UV-I 2,1 C 2,7 C 7,6 km/h (2 Bft)
27.11.2011 04:50 5,9 C 10,3 C 5,8 C 5,6 C 4,5 C 0,0 C 77 % 80 % 0 % 1022,2 hPa 0,0 l/m 8,2 km/h (2 Bft) W-SW 247 0 min 0,0 UV-I 2,2 C 2,5 C 6,4 km/h (2 Bft)
27.11.2011 04:55 5,9 C 10,3 C 5,9 C 5,5 C 4,7 C 0,0 C 77 % 80 % 0 % 1022,2 hPa 0,0 l/m 7,4 km/h (2 Bft) S-SO 157 0 min 0,0 UV-I 2,2 C 2,9 C 7,7 km/h (2 Bft)
27.11.2011 05:00 5,8 C 10,3 C 5,8 C 5,4 C 4,7 C 0,0 C 77 % 80 % 0 % 1021,7 hPa 0,0 l/m 7,2 km/h (2 Bft) SO 135 0 min 0,0 UV-I 2,1 C 3,0 C 8,0 km/h (2 Bft)
27.11.2011 05:10 5,9 C 10,3 C 5,9 C 5,5 C 4,7 C 0,0 C 77 % 80 % 0 % 1021,7 hPa 0,0 l/m 7,1 km/h (2 Bft) N 0 0 min 0,0 UV-I 2,2 C 3,0 C 9,7 km/h (2 Bft)
27.11.2011 05:20 5,7 C 10,3 C 5,7 C 5,3 C 4,6 C 0,0 C 77 % 80 % 0 % 1021,8 hPa 0,0 l/m 6,3 km/h (2 Bft) S 180 0 min 0,0 UV-I 2,0 C 3,2 C 10,6 km/h (2 Bft)
27.11.2011 05:25 5,6 C 10,3 C 5,6 C 5,3 C 4,6 C 0,0 C 77 % 80 % 0 % 1021,8 hPa 0,0 l/m 6,1 km/h (2 Bft) W-SW 247 0 min 0,0 UV-I 1,9 C 3,2 C 7,9 km/h (2 Bft)
27.11.2011 05:30 5,6 C 10,3 C 5,6 C 5,3 C 4,6 C 0,0 C 78 % 80 % 0 % 1021,8 hPa 0,0 l/m 6,0 km/h (2 Bft) S 180 0 min 0,0 UV-I 2,1 C 3,3 C 10,9 km/h (2 Bft)
27.11.2011 05:35 5,6 C 10,3 C 5,6 C 5,3 C 4,7 C 0,0 C 78 % 80 % 0 % 1021,8 hPa 0,0 l/m 5,5 km/h (1 Bft) NW 315 0 min 0,0 UV-I 2,1 C 3,6 C 3,9 km/h (1 Bft)
27.11.2011 05:40 5,5 C 10,3 C 5,5 C 5,1 C 4,4 C 0,0 C 78 % 80 % 0 % 1021,7 hPa 0,0 l/m 6,1 km/h (2 Bft) S-SO 157 0 min 0,0 UV-I 2,0 C 3,0 C 17,9 km/h (3 Bft)
27.11.2011 05:45 5,5 C 10,3 C 5,4 C 5,0 C 4,0 C 0,0 C 78 % 80 % 0 % 1021,7 hPa 0,0 l/m 6,4 km/h (2 Bft) S 180 0 min 0,0 UV-I 2,0 C 2,4 C 10,3 km/h (2 Bft)
27.11.2011 05:50 5,5 C 10,3 C 5,3 C 4,9 C 3,7 C 0,0 C 78 % 80 % 0 % 1021,7 hPa 0,0 l/m 6,8 km/h (2 Bft) S 180 0 min 0,0 UV-I 2,0 C 2,0 C 4,7 km/h (1 Bft)
27.11.2011 05:55 5,3 C 10,3 C 5,2 C 4,8 C 3,7 C 0,0 C 78 % 81 % 0 % 1021,7 hPa 0,0 l/m 6,3 km/h (2 Bft) S-SW 202 0 min 0,0 UV-I 1,8 C 2,1 C 6,8 km/h (2 Bft)
27.11.2011 06:00 5,3 C 10,3 C 5,2 C 4,8 C 3,8 C 0,0 C 78 % 80 % 0 % 1021,3 hPa 0,0 l/m 5,8 km/h (2 Bft) S-SO 157 0 min 0,0 UV-I 1,8 C 2,4 C 3,1 km/h (1 Bft)
27.11.2011 06:10 5,3 C 10,3 C 5,1 C 4,7 C 3,6 C 0,0 C 78 % 81 % 0 % 1021,3 hPa 0,0 l/m 6,0 km/h (2 Bft) N 0 0 min 0,0 UV-I 1,8 C 2,1 C 7,6 km/h (2 Bft)
27.11.2011 06:20 5,2 C 10,3 C 5,1 C 4,5 C 3,2 C 0,0 C 78 % 81 % 0 % 1021,2 hPa 0,0 l/m 7,2 km/h (2 Bft) SW 225 0 min 0,0 UV-I 1,7 C 1,3 C 10,0 km/h (2 Bft)
27.11.2011 06:25 5,1 C 10,3 C 5,0 C 4,5 C 3,4 C 0,0 C 78 % 81 % 0 % 1021,2 hPa 0,0 l/m 6,0 km/h (2 Bft) S 180 0 min 0,0 UV-I 1,6 C 1,9 C 7,1 km/h (2 Bft)
27.11.2011 06:30 5,1 C 10,3 C 5,1 C 4,6 C 3,5 C 0,0 C 79 % 81 % 0 % 1021,2 hPa 0,0 l/m 5,6 km/h (1 Bft) W 270 0 min 0,0 UV-I 1,8 C 2,1 C 12,7 km/h (3 Bft)
27.11.2011 06:35 5,1 C 10,3 C 4,9 C 4,5 C 3,3 C 0,0 C 79 % 81 % 0 % 1021,2 hPa 0,0 l/m 6,3 km/h (2 Bft) NW 315 0 min 0,0 UV-I 1,8 C 1,7 C 4,8 km/h (1 Bft)
27.11.2011 06:40 5,0 C 10,3 C 5,1 C 4,4 C 3,1 C 0,0 C 79 % 81 % 0 % 1021,1 hPa 0,0 l/m 7,1 km/h (2 Bft) SW 225 0 min 0,0 UV-I 1,7 C 1,2 C 16,7 km/h (3 Bft)
27.11.2011 06:45 5,1 C 10,3 C 5,0 C 4,5 C 3,2 C 0,0 C 79 % 81 % 0 % 1021,1 hPa 0,0 l/m 6,6 km/h (2 Bft) NW 315 0 min 0,0 UV-I 1,8 C 1,4 C 4,7 km/h (1 Bft)
27.11.2011 06:50 5,1 C 10,3 C 5,1 C 4,5 C 3,3 C 0,0 C 79 % 81 % 0 % 1021,1 hPa 0,0 l/m 6,3 km/h (2 Bft) S-SW 202 0 min 0,0 UV-I 1,8 C 1,7 C 6,6 km/h (2 Bft)
27.11.2011 06:55 4,9 C 10,3 C 4,9 C 4,4 C 3,3 C 0,0 C 79 % 82 % 0 % 1021,1 hPa 0,0 l/m 5,8 km/h (2 Bft) W 270 0 min 0,0 UV-I 1,6 C 1,8 C 6,6 km/h (2 Bft)
27.11.2011 07:00 5,0 C 10,3 C 4,9 C 4,5 C 3,4 C 0,0 C 79 % 82 % 0 % 1020,6 hPa 0,0 l/m 5,5 km/h (1 Bft) S 180 0 min 0,0 UV-I 1,7 C 2,1 C 5,5 km/h (1 Bft)
27.11.2011 07:10 4,9 C 10,3 C 4,8 C 4,4 C 3,4 C 0,0 C 79 % 82 % 0 % 1020,6 hPa 0,0 l/m 5,3 km/h (1 Bft) N 0 0 min 0,0 UV-I 1,6 C 2,1 C 3,4 km/h (1 Bft)
27.11.2011 07:20 5,1 C 10,3 C 4,9 C 4,5 C 3,4 C 0,0 C 79 % 82 % 0 % 1020,6 hPa 0,0 l/m 5,6 km/h (1 Bft) SO 135 0 min 0,0 UV-I 1,8 C 2,0 C 6,1 km/h (2 Bft)
27.11.2011 07:25 4,9 C 10,3 C 4,8 C 4,2 C 2,9 C 0,0 C 79 % 82 % 0 % 1020,6 hPa 0,0 l/m 6,6 km/h (2 Bft) W-SW 247 0 min 0,0 UV-I 1,6 C 1,1 C 8,9 km/h (2 Bft)
27.11.2011 07:30 4,9 C 10,3 C 4,9 C 4,3 C 3,1 C 0,0 C 79 % 82 % 0 % 1020,6 hPa 0,0 l/m 6,6 km/h (2 Bft) W-SW 247 0 min 0,0 UV-I 1,6 C 1,3 C 4,5 km/h (1 Bft)
27.11.2011 07:35 4,9 C 10,3 C 4,8 C 4,3 C 3,0 C 0,0 C 78 % 81 % 0 % 1020,6 hPa 0,0 l/m 6,8 km/h (2 Bft) W-SW 247 0 min 0,0 UV-I 1,4 C 1,1 C 15,0 km/h (3 Bft)
27.11.2011 07:40 4,9 C 10,3 C 4,8 C 4,2 C 2,9 C 0,0 C 78 % 81 % 0 % 1020,6 hPa 0,0 l/m 6,9 km/h (2 Bft) O-NO 67 0 min 0,0 UV-I 1,4 C 1,0 C 9,8 km/h (2 Bft)
27.11.2011 07:45 4,9 C 10,3 C 4,9 C 4,2 C 2,9 C 0,0 C 78 % 80 % 0 % 1020,6 hPa 0,0 l/m 7,1 km/h (2 Bft) W 270 0 min 0,0 UV-I 1,4 C 0,9 C 10,0 km/h (2 Bft)
27.11.2011 07:50 4,9 C 10,3 C 4,7 C 4,2 C 2,9 C 0,0 C 78 % 81 % 0 % 1020,6 hPa 0,0 l/m 7,1 km/h (2 Bft) W-SW 247 0 min 0,0 UV-I 1,4 C 0,9 C 26,7 km/h (4 Bft)
27.11.2011 07:55 4,8 C 10,2 C 4,8 C 4,3 C 2,6 C 0,0 C 78 % 80 % 0 % 1020,6 hPa 0,0 l/m 8,5 km/h (2 Bft) W-SW 247 0 min 0,0 UV-I 1,3 C 0,2 C 7,9 km/h (2 Bft)
27.11.2011 08:00 4,8 C 10,2 C 4,7 C 4,2 C 2,2 C 0,0 C 77 % 80 % 0 % 1020,6 hPa 0,0 l/m 10,1 km/h (2 Bft) O 90 0 min 0,0 UV-I 1,1 C -0,7 C 29,8 km/h (5 Bft)
27.11.2011 08:10 4,8 C 10,2 C 4,7 C 4,3 C 2,7 C 0,0 C 77 % 80 % 0 % 1020,6 hPa 0,0 l/m 8,7 km/h (2 Bft) N 0 0 min 0,0 UV-I 1,1 C 0,2 C 7,4 km/h (2 Bft)
27.11.2011 08:20 4,8 C 10,2 C 4,7 C 4,3 C 2,6 C 0,0 C 78 % 80 % 0 % 1020,6 hPa 0,0 l/m 8,5 km/h (2 Bft) SW 225 0 min 0,0 UV-I 1,3 C 0,2 C 16,7 km/h (3 Bft)
27.11.2011 08:25 4,9 C 10,2 C 4,8 C 4,4 C 2,7 C 0,0 C 77 % 80 % 0 % 1020,6 hPa 0,0 l/m 8,9 km/h (2 Bft) S-SO 157 0 min 0,0 UV-I 1,2 C 0,2 C 9,5 km/h (2 Bft)
27.11.2011 08:30 4,8 C 10,2 C 4,8 C 4,4 C 3,0 C 0,0 C 77 % 80 % 0 % 1020,6 hPa 0,0 l/m 7,9 km/h (2 Bft) S-SW 202 0 min 0,0 UV-I 1,1 C 0,8 C 7,1 km/h (2 Bft)
27.11.2011 08:35 4,8 C 10,2 C 4,8 C 4,4 C 2,9 C 0,0 C 77 % 80 % 0 % 1020,6 hPa 0,0 l/m 8,7 km/h (2 Bft) SW 225 0 min 0,0 UV-I 1,1 C 0,5 C 15,8 km/h (3 Bft)
27.11.2011 08:40 4,9 C 10,2 C 4,9 C 4,5 C 3,0 C 0,0 C 77 % 80 % 0 % 1020,0 hPa 0,0 l/m 9,2 km/h (2 Bft) S-SO 157 0 min 0,0 UV-I 1,2 C 0,5 C 12,2 km/h (2 Bft)
27.11.2011 08:45 5,1 C 10,2 C 4,9 C 4,4 C 3,0 C 0,0 C 77 % 80 % 0 % 1020,0 hPa 0,0 l/m 9,2 km/h (2 Bft) S 180 0 min 0,0 UV-I 1,4 C 0,5 C 12,9 km/h (3 Bft)
27.11.2011 08:50 5,1 C 10,2 C 5,1 C 4,7 C 3,3 C 0,0 C 77 % 80 % 0 % 1020,0 hPa 0,0 l/m 7,9 km/h (2 Bft) W 270 0 min 0,0 UV-I 1,4 C 1,2 C 13,5 km/h (3 Bft)
27.11.2011 08:55 5,1 C 10,2 C 4,9 C 4,6 C 3,6 C 0,0 C 77 % 80 % 0 % 1020,0 hPa 0,0 l/m 6,9 km/h (2 Bft) SW 225 0 min 0,0 UV-I 1,4 C 1,8 C 13,8 km/h (3 Bft)
27.11.2011 09:00 5,1 C 10,2 C 5,1 C 4,7 C 3,3 C 0,0 C 77 % 80 % 0 % 1020,0 hPa 0,0 l/m 8,4 km/h (2 Bft) SW 225 0 min 0,0 UV-I 1,4 C 1,0 C 11,7 km/h (2 Bft)
27.11.2011 09:09 5,1 C 10,2 C 5,1 C 4,6 C 3,7 C 0,0 C 77 % 80 % 0 % 1020,0 hPa 0,0 l/m 6,8 km/h (2 Bft) N 0 0 min 0,0 UV-I 1,4 C 2,0 C 8,5 km/h (2 Bft)
27.11.2011 09:19 5,2 C 10,2 C 5,1 C 5,0 C 4,7 C 0,0 C 77 % 79 % 0 % 1020,5 hPa 0,0 l/m 5,6 km/h (1 Bft) S 180 0 min 0,0 UV-I 1,5 C 3,5 C 11,1 km/h (2 Bft)
27.11.2011 09:25 5,4 C 10,3 C 5,2 C 5,2 C 4,7 C 0,0 C 76 % 79 % 0 % 1020,5 hPa 0,0 l/m 5,1 km/h (1 Bft) S 180 0 min 0,0 UV-I 1,5 C 3,7 C 5,6 km/h (1 Bft)
27.11.2011 09:30 5,5 C 10,2 C 5,3 C 5,2 C 4,6 C 0,0 C 76 % 79 % 0 % 1020,5 hPa 0,0 l/m 6,0 km/h (2 Bft) O-SO 112 0 min 0,0 UV-I 1,6 C 3,3 C 4,5 km/h (1 Bft)
27.11.2011 09:35 5,6 C 10,2 C 5,4 C 5,2 C 4,4 C 0,0 C 75 % 79 % 0 % 1020,5 hPa 0,0 l/m 6,6 km/h (2 Bft) O-NO 67 0 min 0,0 UV-I 1,5 C 2,8 C 9,7 km/h (2 Bft)
27.11.2011 09:40 5,7 C 10,2 C 5,6 C 5,5 C 5,1 C 0,0 C 75 % 78 % 0 % 1019,9 hPa 0,0 l/m 6,1 km/h (2 Bft) S-SO 157 0 min 0,0 UV-I 1,6 C 3,8 C 10,5 km/h (2 Bft)
27.11.2011 09:45 5,8 C 10,2 C 5,7 C 5,6 C 5,2 C 0,0 C 75 % 78 % 0 % 1019,9 hPa 0,0 l/m 6,1 km/h (2 Bft) W-SW 247 0 min 0,0 UV-I 1,7 C 3,9 C 19,0 km/h (3 Bft)
27.11.2011 09:50 5,9 C 10,2 C 5,6 C 5,6 C 4,9 C 0,0 C 75 % 78 % 0 % 1019,9 hPa 0,0 l/m 6,8 km/h (2 Bft) S-SO 157 0 min 0,0 UV-I 1,8 C 3,4 C 10,0 km/h (2 Bft)
27.11.2011 09:55 6,0 C 10,2 C 5,7 C 5,6 C 4,8 C 0,0 C 75 % 78 % 0 % 1019,9 hPa 0,0 l/m 6,9 km/h (2 Bft) W-SW 247 0 min 0,0 UV-I 1,9 C 3,2 C 11,4 km/h (2 Bft)
27.11.2011 10:00 6,0 C 10,2 C 5,9 C 5,7 C 5,2 C 0,0 C 74 % 78 % 0 % 1019,9 hPa 0,0 l/m 6,1 km/h (2 Bft) S-SW 202 0 min 0,0 UV-I 1,7 C 3,9 C 7,2 km/h (2 Bft)
27.11.2011 10:15 6,5 C 10,2 C 6,3 C 6,3 C 5,1 C 0,0 C 72 % 76 % 0 % 1019,9 hPa 0,0 l/m 11,4 km/h (2 Bft) SW 225 0 min 0,0 UV-I 1,8 C 2,5 C 24,3 km/h (4 Bft)
27.11.2011 10:18 6,5 C 10,2 C 6,3 C 5,7 C 5,1 C 0,0 C 72 % 76 % 0 % 1019,9 hPa 0,0 l/m 11,4 km/h (2 Bft) SW 225 0 min 0,0 UV-I 1,8 C 2,5 C 24,3 km/h (4 Bft)
27.11.2011 10:29 6,8 C 10,2 C 6,4 C 6,7 C 6,1 C 0,0 C 72 % 75 % 0 % 1019,9 hPa 0,0 l/m 10,0 km/h (2 Bft) W 270 0 min 0,0 UV-I 2,1 C 4,0 C 7,6 km/h (2 Bft)
27.11.2011 10:30 6,9 C 10,2 C 6,5 C 7,0 C 6,6 C 0,1 C 71 % 75 % 3 % 1019,9 hPa 0,0 l/m 9,8 km/h (2 Bft) SW 225 0 min 0,0 UV-I 2,0 C 4,6 C 23,2 km/h (4 Bft)
27.11.2011 10:31 6,9 C 10,2 C 6,5 C 6,8 C 6,6 C 0,0 C 71 % 75 % 0 % 1019,9 hPa 0,0 l/m 9,8 km/h (2 Bft) SW 225 0 min 0,0 UV-I 2,0 C 4,6 C 23,2 km/h (4 Bft)
27.11.2011 10:32 6,9 C 10,2 C 6,5 C 6,8 C 6,6 C 0,0 C 71 % 75 % 0 % 1019,9 hPa 0,0 l/m 9,8 km/h (2 Bft) SW 225 0 min 0,0 UV-I 2,0 C 4,6 C 23,2 km/h (4 Bft)
27.11.2011 10:33 6,9 C 10,2 C 6,5 C 6,8 C 6,6 C 0,0 C 71 % 75 % 0 % 1019,9 hPa 0,0 l/m 9,8 km/h (2 Bft) SW 225 0 min 0,0 UV-I 2,0 C 4,6 C 23,2 km/h (4 Bft)
27.11.2011 10:34 7,0 C 10,1 C 6,7 C 6,3 C 6,3 C 0,0 C 71 % 75 % 0 % 1019,9 hPa 0,0 l/m 10,3 km/h (2 Bft) W-NW 292 0 min 0,0 UV-I 2,1 C 4,2 C 7,6 km/h (2 Bft)
27.11.2011 10:37 7,0 C 10,1 C 6,7 C 6,8 C 6,3 C 0,0 C 71 % 75 % 0 % 1019,9 hPa 0,0 l/m 10,3 km/h (2 Bft) W-NW 292 0 min 0,0 UV-I 2,1 C 4,2 C 7,6 km/h (2 Bft)
27.11.2011 10:40 7,1 C 10,1 C 6,9 C 7,0 C 5,9 C 0,0 C 71 % 75 % 0 % 1019,8 hPa 0,0 l/m 11,1 km/h (2 Bft) W-SW 247 0 min 0,0 UV-I 2,2 C 3,5 C 23,2 km/h (4 Bft)
27.11.2011 10:45 7,2 C 10,1 C 6,8 C 7,0 C 6,1 C 0,0 C 71 % 74 % 0 % 1019,8 hPa 0,0 l/m 9,7 km/h (2 Bft) S 180 0 min 0,0 UV-I 2,3 C 4,0 C 14,2 km/h (3 Bft)
27.11.2011 10:50 7,3 C 10,1 C 6,9 C 6,9 C 6,1 C 0,0 C 71 % 74 % 0 % 1019,8 hPa 0,0 l/m 9,3 km/h (2 Bft) NW 315 0 min 0,0 UV-I 2,4 C 4,1 C 11,9 km/h (2 Bft)
27.11.2011 10:55 7,5 C 10,1 C 7,0 C 7,3 C 6,2 C 0,0 C 70 % 74 % 0 % 1019,8 hPa 0,0 l/m 11,1 km/h (2 Bft) S 180 0 min 0,0 UV-I 2,4 C 3,9 C 6,8 km/h (2 Bft)
27.11.2011 11:00 7,5 C 10,1 C 7,1 C 7,4 C 6,6 C 0,0 C 70 % 73 % 0 % 1019,8 hPa 0,0 l/m 11,3 km/h (2 Bft) SW 225 0 min 0,0 UV-I 2,4 C 4,3 C 35,9 km/h (5 Bft)
27.11.2011 11:15 7,7 C 10,2 C 7,5 C 8,4 C 8,4 C 0,7 C 69 % 73 % 18 % 1019,8 hPa 0,0 l/m 7,4 km/h (2 Bft) W 270 0 min 0,0 UV-I 2,4 C 7,3 C 12,9 km/h (3 Bft)
27.11.2011 11:18 7,7 C 10,2 C 7,5 C 8,4 C 8,4 C 0,7 C 69 % 73 % 18 % 1019,8 hPa 0,0 l/m 7,4 km/h (2 Bft) W 270 0 min 0,0 UV-I 2,4 C 7,3 C 12,9 km/h (3 Bft)
27.11.2011 11:25 7,9 C 10,2 C 7,7 C 8,9 C 8,6 C 1,0 C 69 % 73 % 26 % 1019,4 hPa 0,0 l/m 8,5 km/h (2 Bft) W-SW 247 0 min 0,0 UV-I 2,6 C 7,3 C 15,0 km/h (3 Bft)
27.11.2011 11:30 8,0 C 10,2 C 7,6 C 8,8 C 8,2 C 0,8 C 69 % 72 % 21 % 1019,4 hPa 0,0 l/m 10,0 km/h (2 Bft) S-SW 202 0 min 0,0 UV-I 2,7 C 6,5 C 13,4 km/h (3 Bft)
27.11.2011 11:35 8,1 C 10,2 C 7,7 C 8,2 C 8,2 C 0,1 C 68 % 72 % 3 % 1019,4 hPa 0,0 l/m 11,3 km/h (2 Bft) S-SW 202 0 min 0,0 UV-I 2,6 C 6,2 C 15,8 km/h (3 Bft)
27.11.2011 11:40 8,2 C 10,2 C 7,8 C 8,6 C 7,9 C 0,4 C 67 % 72 % 11 % 1018,9 hPa 0,0 l/m 12,1 km/h (2 Bft) W-SW 247 0 min 0,0 UV-I 2,4 C 5,8 C 27,2 km/h (4 Bft)
27.11.2011 11:45 8,5 C 10,2 C 8,0 C 8,4 C 7,3 C 0,0 C 66 % 70 % 0 % 1018,9 hPa 0,0 l/m 14,8 km/h (3 Bft) S-SW 202 0 min 0,0 UV-I 2,5 C 4,6 C 13,8 km/h (3 Bft)
27.11.2011 11:50 8,4 C 10,2 C 8,0 C 8,2 C 7,1 C 0,0 C 66 % 70 % 0 % 1018,9 hPa 0,0 l/m 15,8 km/h (3 Bft) SW 225 0 min 0,0 UV-I 2,4 C 4,2 C 13,2 km/h (3 Bft)
27.11.2011 11:55 8,7 C 10,2 C 8,2 C 8,4 C 6,9 C 0,0 C 65 % 69 % 0 % 1018,9 hPa 0,0 l/m 15,6 km/h (3 Bft) SW 225 0 min 0,0 UV-I 2,5 C 4,0 C 20,9 km/h (4 Bft)
27.11.2011 12:00 8,6 C 10,2 C 8,3 C 8,3 C 7,1 C 0,0 C 64 % 69 % 0 % 1018,9 hPa 0,0 l/m 16,4 km/h (3 Bft) SW 225 0 min 0,0 UV-I 2,2 C 4,1 C 27,7 km/h (4 Bft)
27.11.2011 12:04 8,7 C 10,2 C 8,4 C 7,8 C 7,7 C 0,0 C 64 % 68 % 0 % 1018,9 hPa 0,0 l/m 17,1 km/h (3 Bft) SW 225 0 min 0,0 UV-I 2,3 C 4,8 C 20,9 km/h (4 Bft)
27.11.2011 12:09 8,7 C 10,2 C 8,4 C 8,6 C 7,4 C 0,0 C 64 % 68 % 0 % 1018,9 hPa 0,0 l/m 17,7 km/h (3 Bft) SW 225 0 min 0,0 UV-I 2,3 C 4,4 C 26,7 km/h (4 Bft)
27.11.2011 12:14 8,8 C 10,2 C 8,4 C 8,6 C 7,2 C 0,0 C 64 % 67 % 0 % 1018,9 hPa 0,0 l/m 19,0 km/h (3 Bft) W-SW 247 0 min 0,0 UV-I 2,4 C 4,0 C 19,6 km/h (3 Bft)
27.11.2011 12:19 8,8 C 10,2 C 8,4 C 8,5 C 7,1 C 0,0 C 64 % 68 % 0 % 1019,2 hPa 0,0 l/m 18,8 km/h (3 Bft) W 270 0 min 0,0 UV-I 2,4 C 3,9 C 17,7 km/h (3 Bft)
27.11.2011 12:22 8,8 C 10,2 C 8,4 C 8,2 C 7,1 C 0,0 C 64 % 68 % 0 % 1019,2 hPa 0,0 l/m 18,8 km/h (3 Bft) W 270 0 min 0,0 UV-I 2,4 C 3,9 C 17,7 km/h (3 Bft)
27.11.2011 12:30 8,9 C 10,3 C 8,7 C 8,6 C 7,4 C 0,0 C 63 % 67 % 0 % 1019,2 hPa 0,0 l/m 18,3 km/h (3 Bft) SW 225 0 min 0,0 UV-I 2,2 C 4,3 C 21,4 km/h (4 Bft)
27.11.2011 12:35 9,1 C 10,3 C 8,7 C 8,9 C 8,0 C 0,0 C 63 % 67 % 0 % 1019,2 hPa 0,0 l/m 16,6 km/h (3 Bft) S-SW 202 0 min 0,0 UV-I 2,4 C 5,2 C 15,3 km/h (3 Bft)
27.11.2011 12:40 9,1 C 10,3 C 8,6 C 8,7 C 8,0 C 0,0 C 63 % 67 % 0 % 1018,4 hPa 0,0 l/m 16,7 km/h (3 Bft) W-SW 247 0 min 0,0 UV-I 2,4 C 5,2 C 36,9 km/h (5 Bft)
27.11.2011 12:45 9,1 C 10,3 C 8,8 C 8,9 C 7,6 C 0,0 C 63 % 67 % 0 % 1018,4 hPa 0,0 l/m 18,0 km/h (3 Bft) W-SW 247 0 min 0,0 UV-I 2,4 C 4,6 C 19,3 km/h (3 Bft)
27.11.2011 12:50 9,1 C 10,3 C 8,7 C 8,6 C 7,6 C 0,0 C 64 % 67 % 0 % 1018,4 hPa 0,0 l/m 17,9 km/h (3 Bft) S 180 0 min 0,0 UV-I 2,7 C 4,6 C 20,1 km/h (4 Bft)
27.11.2011 12:55 9,1 C 10,3 C 8,9 C 8,6 C 7,6 C 0,0 C 63 % 67 % 0 % 1018,4 hPa 0,0 l/m 17,7 km/h (3 Bft) W-SW 247 0 min 0,0 UV-I 2,4 C 4,6 C 20,4 km/h (4 Bft)
27.11.2011 13:00 9,1 C 10,3 C 8,8 C 8,9 C 7,5 C 0,0 C 63 % 66 % 0 % 1018,0 hPa 0,0 l/m 18,8 km/h (3 Bft) SW 225 0 min 0,0 UV-I 2,4 C 4,4 C 37,3 km/h (5 Bft)
27.11.2011 13:15 9,3 C 10,3 C 8,9 C 9,2 C 8,9 C 0,0 C 63 % 67 % 0 % 1018,0 hPa 0,0 l/m 15,0 km/h (3 Bft) N 0 0 min 0,0 UV-I 2,6 C 6,6 C 31,7 km/h (5 Bft)
27.11.2011 13:25 9,4 C 10,4 C 9,0 C 9,7 C 9,2 C 0,3 C 64 % 68 % 8 % 1018,4 hPa 0,0 l/m 14,5 km/h (3 Bft) W-SW 247 0 min 0,0 UV-I 2,9 C 7,0 C 18,3 km/h (3 Bft)
27.11.2011 13:30 9,5 C 10,4 C 9,0 C 10,0 C 9,6 C 0,5 C 64 % 68 % 13 % 1018,4 hPa 0,0 l/m 13,2 km/h (3 Bft) O-NO 67 0 min 0,0 UV-I 3,0 C 7,7 C 15,1 km/h (3 Bft)
27.11.2011 13:35 9,5 C 10,4 C 9,1 C 10,3 C 9,8 C 0,8 C 64 % 68 % 21 % 1018,4 hPa 0,0 l/m 13,2 km/h (3 Bft) W-SW 247 0 min 0,0 UV-I 3,0 C 7,9 C 19,2 km/h (3 Bft)
27.11.2011 13:40 9,5 C 10,4 C 9,1 C 10,3 C 9,9 C 0,8 C 65 % 68 % 21 % 1017,8 hPa 0,0 l/m 12,2 km/h (2 Bft) SW 225 0 min 0,0 UV-I 3,3 C 8,2 C 25,9 km/h (4 Bft)
27.11.2011 13:45 9,4 C 10,4 C 9,1 C 10,1 C 9,2 C 0,7 C 65 % 68 % 18 % 1017,8 hPa 0,0 l/m 15,3 km/h (3 Bft) S-SW 202 0 min 0,0 UV-I 3,2 C 6,9 C 21,6 km/h (4 Bft)
27.11.2011 13:50 9,5 C 10,4 C 9,2 C 9,7 C 8,9 C 0,2 C 65 % 68 % 5 % 1017,8 hPa 0,0 l/m 16,7 km/h (3 Bft) SW 225 0 min 0,0 UV-I 3,3 C 6,3 C 14,3 km/h (3 Bft)
27.11.2011 13:55 9,5 C 10,4 C 9,2 C 9,7 C 9,1 C 0,2 C 65 % 68 % 5 % 1017,8 hPa 0,0 l/m 15,3 km/h (3 Bft) W-SW 247 0 min 0,0 UV-I 3,3 C 6,8 C 14,8 km/h (3 Bft)
27.11.2011 14:00 9,6 C 10,4 C 9,4 C 9,9 C 9,4 C 0,3 C 65 % 68 % 8 % 1017,8 hPa 0,0 l/m 14,6 km/h (3 Bft) S-SW 202 0 min 0,0 UV-I 3,4 C 7,2 C 14,8 km/h (3 Bft)
27.11.2011 14:05 9,6 C 10,4 C 9,5 C 10,2 C 9,7 C 0,6 C 65 % 68 % 16 % 1017,8 hPa 0,0 l/m 14,2 km/h (3 Bft) W-SW 247 0 min 0,0 UV-I 3,4 C 7,6 C 15,1 km/h (3 Bft)
27.11.2011 14:10 9,6 C 10,4 C 9,6 C 9,7 C 9,7 C 0,1 C 65 % 68 % 3 % 1017,8 hPa 0,0 l/m 13,8 km/h (3 Bft) W 270 0 min 0,0 UV-I 3,4 C 7,7 C 26,6 km/h (4 Bft)
27.11.2011 14:15 9,7 C 10,4 C 9,6 C 9,7 C 9,7 C 0,0 C 66 % 68 % 0 % 1017,8 hPa 0,0 l/m 13,0 km/h (3 Bft) NO 45 0 min 0,0 UV-I 3,7 C 7,8 C 11,9 km/h (2 Bft)
27.11.2011 14:20 9,7 C 10,5 C 9,6 C 10,1 C 9,5 C 0,4 C 65 % 68 % 11 % 1017,8 hPa 0,0 l/m 14,2 km/h (3 Bft) W-SW 247 0 min 0,0 UV-I 3,4 C 7,4 C 16,1 km/h (3 Bft)
27.11.2011 14:25 9,6 C 10,5 C 9,5 C 9,9 C 9,2 C 0,3 C 66 % 69 % 8 % 1017,8 hPa 0,0 l/m 14,2 km/h (3 Bft) W-SW 247 0 min 0,0 UV-I 3,6 C 7,0 C 11,3 km/h (2 Bft)
27.11.2011 14:30 9,7 C 10,5 C 9,4 C 9,9 C 9,4 C 0,2 C 66 % 69 % 5 % 1017,8 hPa 0,0 l/m 14,8 km/h (3 Bft) W-SW 247 0 min 0,0 UV-I 3,7 C 7,2 C 21,6 km/h (4 Bft)
27.11.2011 14:35 9,7 C 10,5 C 9,5 C 9,8 C 9,1 C 0,1 C 66 % 69 % 3 % 1017,8 hPa 0,0 l/m 15,8 km/h (3 Bft) S-SW 202 0 min 0,0 UV-I 3,7 C 6,7 C 15,0 km/h (3 Bft)
27.11.2011 14:40 9,5 C 10,5 C 9,4 C 9,5 C 8,4 C 0,0 C 66 % 69 % 0 % 1018,2 hPa 0,0 l/m 17,2 km/h (3 Bft) W-SW 247 0 min 0,0 UV-I 3,5 C 5,7 C 22,7 km/h (4 Bft)
27.11.2011 14:45 9,4 C 10,5 C 9,3 C 9,3 C 8,2 C 0,0 C 67 % 69 % 0 % 1018,2 hPa 0,0 l/m 17,4 km/h (3 Bft) SW 225 0 min 0,0 UV-I 3,6 C 5,4 C 20,9 km/h (4 Bft)
27.11.2011 14:50 9,5 C 10,5 C 9,3 C 9,1 C 8,2 C 0,0 C 67 % 69 % 0 % 1018,2 hPa 0,0 l/m 16,3 km/h (3 Bft) W 270 0 min 0,0 UV-I 3,7 C 5,5 C 17,7 km/h (3 Bft)
27.11.2011 14:55 9,3 C 10,5 C 9,3 C 8,9 C 8,2 C 0,0 C 68 % 70 % 0 % 1018,2 hPa 0,0 l/m 15,3 km/h (3 Bft) W-SW 247 0 min 0,0 UV-I 3,7 C 5,7 C 13,7 km/h (3 Bft)
27.11.2011 15:00 9,3 C 10,5 C 9,3 C 8,9 C 8,2 C 0,0 C 67 % 70 % 0 % 1018,4 hPa 0,0 l/m 14,3 km/h (3 Bft) S 180 0 min 0,0 UV-I 3,5 C 5,8 C 15,1 km/h (3 Bft)
27.11.2011 15:04 9,3 C 10,5 C 9,2 C 8,2 C 8,3 C 0,0 C 68 % 71 % 0 % 1018,4 hPa 0,0 l/m 13,0 km/h (3 Bft) NW 315 0 min 0,0 UV-I 3,7 C 6,1 C 16,1 km/h (3 Bft)
27.11.2011 15:09 9,3 C 10,5 C 9,2 C 9,1 C 7,9 C 0,0 C 67 % 69 % 0 % 1018,4 hPa 0,0 l/m 14,8 km/h (3 Bft) SW 225 0 min 0,0 UV-I 3,5 C 5,4 C 29,0 km/h (5 Bft)
27.11.2011 15:14 9,3 C 10,5 C 9,2 C 9,0 C 7,1 C 0,0 C 66 % 69 % 0 % 1018,4 hPa 0,0 l/m 19,6 km/h (3 Bft) SW 225 0 min 0,0 UV-I 3,3 C 3,8 C 17,7 km/h (3 Bft)
27.11.2011 15:22 9,2 C 10,5 C 9,0 C 8,8 C 7,0 C 0,0 C 67 % 69 % 0 % 1018,9 hPa 0,0 l/m 20,1 km/h (4 Bft) W-SW 247 0 min 0,0 UV-I 3,4 C 3,6 C 11,6 km/h (2 Bft)
27.11.2011 15:25 9,1 C 10,6 C 8,9 C 8,7 C 6,9 C 0,0 C 67 % 70 % 0 % 1018,9 hPa 0,0 l/m 18,5 km/h (3 Bft) W-SW 247 0 min 0,0 UV-I 3,3 C 3,6 C 18,8 km/h (3 Bft)
27.11.2011 15:30 8,9 C 10,6 C 8,8 C 8,5 C 6,8 C 0,0 C 67 % 70 % 0 % 1018,9 hPa 0,0 l/m 18,0 km/h (3 Bft) S-SW 202 0 min 0,0 UV-I 3,1 C 3,6 C 19,3 km/h (3 Bft)
27.11.2011 15:35 8,9 C 10,6 C 8,8 C 8,2 C 6,8 C 0,0 C 66 % 69 % 0 % 1018,9 hPa 0,0 l/m 18,2 km/h (3 Bft) W-SW 247 0 min 0,0 UV-I 2,9 C 3,5 C 18,0 km/h (3 Bft)
27.11.2011 15:40 8,8 C 10,6 C 8,8 C 8,4 C 6,4 C 0,0 C 66 % 69 % 0 % 1018,9 hPa 0,0 l/m 20,0 km/h (4 Bft) W-SW 247 0 min 0,0 UV-I 2,8 C 2,8 C 28,3 km/h (4 Bft)
27.11.2011 15:45 8,8 C 10,6 C 8,7 C 8,0 C 6,4 C 0,0 C 67 % 70 % 0 % 1018,9 hPa 0,0 l/m 20,0 km/h (4 Bft) SW 225 0 min 0,0 UV-I 3,0 C 2,8 C 26,4 km/h (4 Bft)
27.11.2011 15:50 8,7 C 10,6 C 8,7 C 8,2 C 6,2 C 0,0 C 67 % 70 % 0 % 1018,9 hPa 0,0 l/m 20,3 km/h (4 Bft) NW 315 0 min 0,0 UV-I 2,9 C 2,5 C 43,0 km/h (6 Bft)
27.11.2011 15:55 8,6 C 10,6 C 8,4 C 8,0 C 5,6 C 0,0 C 67 % 70 % 0 % 1018,9 hPa 0,0 l/m 21,6 km/h (4 Bft) W 270 0 min 0,0 UV-I 2,8 C 1,6 C 35,9 km/h (5 Bft)
27.11.2011 16:00 8,5 C 10,6 C 8,3 C 7,8 C 5,4 C 0,0 C 67 % 70 % 0 % 1018,2 hPa 0,0 l/m 21,1 km/h (4 Bft) SW 225 0 min 0,0 UV-I 2,7 C 1,4 C 21,7 km/h (4 Bft)
27.11.2011 16:16 8,4 C 10,6 C 8,1 C 7,7 C 5,2 C 0,0 C 69 % 72 % 0 % 1018,2 hPa 0,0 l/m 21,9 km/h (4 Bft) W-SW 247 0 min 0,0 UV-I 3,0 C 1,1 C 43,5 km/h (6 Bft)
27.11.2011 16:18 8,4 C 10,6 C 8,1 C 7,1 C 5,2 C 0,0 C 69 % 72 % 0 % 1018,2 hPa 0,0 l/m 21,9 km/h (4 Bft) W-SW 247 0 min 0,0 UV-I 3,0 C 1,1 C 23,7 km/h (4 Bft)
27.11.2011 16:29 8,4 C 10,6 C 8,1 C 7,3 C 5,2 C 0,0 C 69 % 72 % 0 % 1018,6 hPa 0,0 l/m 21,4 km/h (4 Bft) SW 225 0 min 0,0 UV-I 3,0 C 1,2 C 30,1 km/h (5 Bft)
27.11.2011 16:30 8,3 C 10,6 C 8,1 C 7,6 C 5,3 C 0,0 C 70 % 72 % 0 % 1018,6 hPa 0,0 l/m 21,2 km/h (4 Bft) W-SW 247 0 min 0,0 UV-I 3,2 C 1,3 C 25,6 km/h (4 Bft)
27.11.2011 16:31 8,3 C 10,6 C 8,1 C 7,3 C 5,3 C 0,0 C 70 % 72 % 0 % 1018,6 hPa 0,0 l/m 21,2 km/h (4 Bft) W-SW 247 0 min 0,0 UV-I 3,2 C 1,3 C 25,6 km/h (4 Bft)
27.11.2011 16:32 8,3 C 10,6 C 8,1 C 7,3 C 5,3 C 0,0 C 70 % 72 % 0 % 1018,6 hPa 0,0 l/m 21,2 km/h (4 Bft) W-SW 247 0 min 0,0 UV-I 3,2 C 1,3 C 25,6 km/h (4 Bft)
27.11.2011 16:33 8,3 C 10,6 C 8,1 C 7,3 C 5,3 C 0,0 C 70 % 72 % 0 % 1018,6 hPa 0,0 l/m 21,2 km/h (4 Bft) W-SW 247 0 min 0,0 UV-I 3,2 C 1,3 C 25,6 km/h (4 Bft)
27.11.2011 16:34 8,3 C 10,7 C 8,1 C 7,1 C 5,6 C 0,0 C 70 % 73 % 0 % 1018,6 hPa 0,0 l/m 19,5 km/h (3 Bft) SW 225 0 min 0,0 UV-I 3,2 C 1,9 C 18,0 km/h (3 Bft)
27.11.2011 16:37 8,3 C 10,7 C 8,1 C 7,4 C 5,6 C 0,0 C 70 % 73 % 0 % 1018,6 hPa 0,0 l/m 19,5 km/h (3 Bft) SW 225 0 min 0,0 UV-I 3,2 C 1,9 C 18,0 km/h (3 Bft)
27.11.2011 16:40 8,2 C 10,7 C 8,0 C 7,6 C 5,5 C 0,0 C 70 % 73 % 0 % 1018,6 hPa 0,0 l/m 18,7 km/h (3 Bft) W-SW 247 0 min 0,0 UV-I 3,1 C 1,9 C 20,8 km/h (4 Bft)
27.11.2011 16:45 8,3 C 10,8 C 8,0 C 7,4 C 5,5 C 0,0 C 70 % 73 % 0 % 1018,6 hPa 0,0 l/m 18,7 km/h (3 Bft) W-SW 247 0 min 0,0 UV-I 3,2 C 1,9 C 28,0 km/h (4 Bft)
27.11.2011 16:50 8,3 C 10,8 C 8,0 C 7,4 C 5,5 C 0,0 C 70 % 73 % 0 % 1018,6 hPa 0,0 l/m 18,7 km/h (3 Bft) W-SW 247 0 min 0,0 UV-I 3,2 C 1,9 C 21,9 km/h (4 Bft)
27.11.2011 16:55 8,1 C 10,8 C 8,0 C 7,6 C 5,7 C 0,0 C 70 % 73 % 0 % 1018,6 hPa 0,0 l/m 16,7 km/h (3 Bft) W-SW 247 0 min 0,0 UV-I 3,0 C 2,4 C 19,0 km/h (3 Bft)
27.11.2011 17:00 8,1 C 10,8 C 7,9 C 7,6 C 5,9 C 0,0 C 70 % 73 % 0 % 1018,8 hPa 0,0 l/m 14,8 km/h (3 Bft) W 270 0 min 0,0 UV-I 3,0 C 2,9 C 14,8 km/h (3 Bft)
27.11.2011 17:04 8,0 C 10,7 C 7,9 C 6,9 C 6,1 C 0,0 C 71 % 73 % 0 % 1018,8 hPa 0,0 l/m 13,8 km/h (3 Bft) SW 225 0 min 0,0 UV-I 3,1 C 3,3 C 12,7 km/h (3 Bft)
27.11.2011 17:09 8,0 C 10,7 C 7,8 C 7,6 C 6,2 C 0,0 C 71 % 74 % 0 % 1018,8 hPa 0,0 l/m 13,0 km/h (3 Bft) NW 315 0 min 0,0 UV-I 3,1 C 3,5 C 12,2 km/h (2 Bft)
27.11.2011 17:14 8,0 C 10,7 C 7,9 C 7,7 C 6,6 C 0,0 C 72 % 74 % 0 % 1018,8 hPa 0,0 l/m 10,5 km/h (2 Bft) O 90 0 min 0,0 UV-I 3,3 C 4,5 C 19,5 km/h (3 Bft)
27.11.2011 17:19 8,0 C 10,7 C 7,9 C 7,5 C 6,6 C 0,0 C 72 % 74 % 0 % 1018,9 hPa 0,0 l/m 10,5 km/h (2 Bft) S-SO 157 0 min 0,0 UV-I 3,3 C 4,5 C 19,3 km/h (3 Bft)
27.11.2011 17:25 8,0 C 10,7 C 7,9 C 7,7 C 6,1 C 0,0 C 72 % 75 % 0 % 1018,9 hPa 0,0 l/m 13,7 km/h (3 Bft) S 180 0 min 0,0 UV-I 3,3 C 3,3 C 17,9 km/h (3 Bft)
27.11.2011 17:30 8,0 C 10,7 C 7,9 C 7,6 C 6,2 C 0,0 C 72 % 75 % 0 % 1018,9 hPa 0,0 l/m 13,2 km/h (3 Bft) W 270 0 min 0,0 UV-I 3,3 C 3,5 C 10,5 km/h (2 Bft)
27.11.2011 17:35 8,0 C 10,7 C 7,9 C 7,7 C 6,4 C 0,0 C 73 % 76 % 0 % 1018,9 hPa 0,0 l/m 11,7 km/h (2 Bft) S-SW 202 0 min 0,0 UV-I 3,5 C 4,0 C 12,4 km/h (3 Bft)
27.11.2011 17:40 8,1 C 10,8 C 7,9 C 7,8 C 6,6 C 0,0 C 73 % 76 % 0 % 1018,8 hPa 0,0 l/m 10,6 km/h (2 Bft) W-SW 247 0 min 0,0 UV-I 3,6 C 4,5 C 9,7 km/h (2 Bft)
27.11.2011 17:45 8,1 C 10,7 C 7,8 C 7,6 C 6,6 C 0,0 C 74 % 76 % 0 % 1018,8 hPa 0,0 l/m 10,8 km/h (2 Bft) SW 225 0 min 0,0 UV-I 3,8 C 4,4 C 15,4 km/h (3 Bft)
27.11.2011 17:50 8,0 C 10,8 C 7,9 C 7,7 C 6,4 C 0,0 C 74 % 76 % 0 % 1018,8 hPa 0,0 l/m 12,2 km/h (2 Bft) SW 225 0 min 0,0 UV-I 3,7 C 3,9 C 20,0 km/h (4 Bft)
27.11.2011 17:55 8,1 C 10,8 C 8,0 C 7,8 C 6,3 C 0,0 C 74 % 77 % 0 % 1018,8 hPa 0,0 l/m 13,2 km/h (3 Bft) S-SW 202 0 min 0,0 UV-I 3,8 C 3,6 C 27,8 km/h (4 Bft)
27.11.2011 18:00 8,1 C 10,8 C 8,0 C 7,7 C 6,2 C 0,0 C 74 % 77 % 0 % 1018,9 hPa 0,0 l/m 13,5 km/h (3 Bft) S 180 0 min 0,0 UV-I 3,8 C 3,5 C 20,0 km/h (4 Bft)
27.11.2011 18:10 8,3 C 10,8 C 8,0 C 7,9 C 6,3 C 0,0 C 75 % 77 % 0 % 1018,9 hPa 0,0 l/m 15,1 km/h (3 Bft) W-SW 247 0 min 0,0 UV-I 4,1 C 3,3 C 16,9 km/h (3 Bft)
27.11.2011 18:15 8,3 C 10,8 C 8,1 C 7,6 C 6,3 C 0,0 C 75 % 77 % 0 % 1018,9 hPa 0,0 l/m 15,0 km/h (3 Bft) W-SW 247 0 min 0,0 UV-I 4,1 C 3,4 C 12,9 km/h (3 Bft)
27.11.2011 18:20 8,3 C 10,8 C 8,1 C 7,9 C 6,1 C 0,0 C 75 % 77 % 0 % 1018,8 hPa 0,0 l/m 15,9 km/h (3 Bft) W-SW 247 0 min 0,0 UV-I 4,1 C 3,0 C 17,9 km/h (3 Bft)
27.11.2011 18:25 8,4 C 10,8 C 8,1 C 7,9 C 5,9 C 0,0 C 75 % 78 % 0 % 1018,8 hPa 0,0 l/m 16,9 km/h (3 Bft) W-SW 247 0 min 0,0 UV-I 4,2 C 2,6 C 13,5 km/h (3 Bft)
27.11.2011 18:30 8,4 C 10,8 C 8,1 C 7,9 C 6,1 C 0,0 C 75 % 78 % 0 % 1018,8 hPa 0,0 l/m 16,1 km/h (3 Bft) S-SO 157 0 min 0,0 UV-I 4,2 C 2,9 C 14,2 km/h (3 Bft)
27.11.2011 18:35 8,4 C 10,8 C 8,1 C 7,9 C 6,2 C 0,0 C 75 % 78 % 0 % 1018,8 hPa 0,0 l/m 15,9 km/h (3 Bft) W 270 0 min 0,0 UV-I 4,2 C 3,1 C 19,2 km/h (3 Bft)
27.11.2011 18:40 8,4 C 10,8 C 8,3 C 7,9 C 6,1 C 0,0 C 75 % 78 % 0 % 1019,9 hPa 0,0 l/m 16,9 km/h (3 Bft) W 270 0 min 0,0 UV-I 4,2 C 2,8 C 24,8 km/h (4 Bft)
27.11.2011 18:45 8,4 C 10,8 C 8,3 C 8,0 C 6,3 C 0,0 C 75 % 78 % 0 % 1019,9 hPa 0,0 l/m 15,9 km/h (3 Bft) S-SW 202 0 min 0,0 UV-I 4,2 C 3,2 C 20,0 km/h (4 Bft)
27.11.2011 18:50 8,4 C 10,8 C 8,3 C 7,7 C 6,3 C 0,0 C 75 % 78 % 0 % 1019,9 hPa 0,0 l/m 15,8 km/h (3 Bft) W-SW 247 0 min 0,0 UV-I 4,2 C 3,2 C 14,3 km/h (3 Bft)
27.11.2011 18:55 8,4 C 10,8 C 8,1 C 7,7 C 6,3 C 0,0 C 75 % 78 % 0 % 1019,9 hPa 0,0 l/m 15,0 km/h (3 Bft) W-SW 247 0 min 0,0 UV-I 4,2 C 3,4 C 14,5 km/h (3 Bft)
27.11.2011 19:00 8,4 C 10,8 C 8,1 C 8,0 C 6,5 C 0,0 C 75 % 78 % 0 % 1019,4 hPa 0,0 l/m 13,7 km/h (3 Bft) W-SW 247 0 min 0,0 UV-I 4,2 C 3,8 C 20,4 km/h (4 Bft)
27.11.2011 19:10 8,3 C 10,8 C 8,1 C 7,9 C 6,4 C 0,0 C 76 % 78 % 0 % 1019,4 hPa 0,0 l/m 13,0 km/h (3 Bft) W 270 0 min 0,0 UV-I 4,3 C 3,8 C 10,8 km/h (2 Bft)
27.11.2011 19:15 8,3 C 10,8 C 8,1 C 7,7 C 6,4 C 0,0 C 76 % 78 % 0 % 1019,4 hPa 0,0 l/m 13,5 km/h (3 Bft) W-NW 292 0 min 0,0 UV-I 4,3 C 3,7 C 15,6 km/h (3 Bft)
27.11.2011 19:20 8,3 C 10,8 C 8,1 C 7,9 C 6,5 C 0,0 C 76 % 78 % 0 % 1019,7 hPa 0,0 l/m 13,5 km/h (3 Bft) W-SW 247 0 min 0,0 UV-I 4,3 C 3,8 C 24,3 km/h (4 Bft)
27.11.2011 19:25 8,4 C 10,9 C 8,1 C 8,0 C 6,4 C 0,0 C 76 % 78 % 0 % 1019,7 hPa 0,0 l/m 15,0 km/h (3 Bft) W 270 0 min 0,0 UV-I 4,4 C 3,5 C 16,9 km/h (3 Bft)
27.11.2011 19:30 8,4 C 10,9 C 8,3 C 8,0 C 6,6 C 0,0 C 75 % 79 % 0 % 1019,7 hPa 0,0 l/m 13,8 km/h (3 Bft) SW 225 0 min 0,0 UV-I 4,2 C 3,9 C 25,3 km/h (4 Bft)
27.11.2011 19:35 8,4 C 10,9 C 8,2 C 8,0 C 6,5 C 0,0 C 75 % 78 % 0 % 1019,7 hPa 0,0 l/m 14,2 km/h (3 Bft) W 270 0 min 0,0 UV-I 4,2 C 3,7 C 23,2 km/h (4 Bft)
27.11.2011 19:40 8,5 C 10,9 C 8,3 C 8,1 C 6,6 C 0,0 C 75 % 78 % 0 % 1020,1 hPa 0,0 l/m 15,8 km/h (3 Bft) S-SW 202 0 min 0,0 UV-I 4,3 C 3,6 C 25,4 km/h (4 Bft)
27.11.2011 19:45 8,5 C 10,9 C 8,3 C 7,9 C 6,6 C 0,0 C 75 % 78 % 0 % 1020,1 hPa 0,0 l/m 15,9 km/h (3 Bft) W 270 0 min 0,0 UV-I 4,3 C 3,6 C 17,7 km/h (3 Bft)
27.11.2011 19:50 8,5 C 10,9 C 8,4 C 8,1 C 6,4 C 0,0 C 75 % 78 % 0 % 1020,1 hPa 0,0 l/m 16,9 km/h (3 Bft) W-SW 247 0 min 0,0 UV-I 4,3 C 3,2 C 21,7 km/h (4 Bft)
27.11.2011 19:55 8,6 C 10,9 C 8,4 C 8,1 C 6,3 C 0,0 C 75 % 78 % 0 % 1020,1 hPa 0,0 l/m 17,5 km/h (3 Bft) SW 225 0 min 0,0 UV-I 4,4 C 3,0 C 24,5 km/h (4 Bft)
27.11.2011 20:00 8,6 C 10,9 C 8,5 C 8,1 C 6,4 C 0,0 C 75 % 78 % 0 % 1020,2 hPa 0,0 l/m 17,4 km/h (3 Bft) SW 225 0 min 0,0 UV-I 4,4 C 3,1 C 25,9 km/h (4 Bft)
27.11.2011 20:10 8,5 C 10,9 C 8,4 C 8,1 C 6,3 C 0,0 C 76 % 78 % 0 % 1020,2 hPa 0,0 l/m 17,1 km/h (3 Bft) W-SW 247 0 min 0,0 UV-I 4,5 C 3,1 C 17,9 km/h (3 Bft)
27.11.2011 20:15 8,4 C 10,9 C 8,3 C 8,0 C 6,4 C 0,0 C 76 % 78 % 0 % 1020,2 hPa 0,0 l/m 14,6 km/h (3 Bft) W-SW 247 0 min 0,0 UV-I 4,4 C 3,5 C 17,2 km/h (3 Bft)
27.11.2011 20:20 8,4 C 10,9 C 8,3 C 8,0 C 6,6 C 0,0 C 76 % 79 % 0 % 1020,2 hPa 0,0 l/m 13,7 km/h (3 Bft) W 270 0 min 0,0 UV-I 4,4 C 3,9 C 10,9 km/h (2 Bft)
27.11.2011 20:25 8,3 C 10,9 C 8,3 C 7,7 C 6,6 C 0,0 C 76 % 79 % 0 % 1020,2 hPa 0,0 l/m 12,9 km/h (3 Bft) W 270 0 min 0,0 UV-I 4,3 C 4,0 C 12,1 km/h (2 Bft)
27.11.2011 20:30 8,4 C 10,9 C 8,1 C 8,0 C 6,7 C 0,0 C 77 % 79 % 0 % 1020,2 hPa 0,0 l/m 11,3 km/h (2 Bft) NW 315 0 min 0,0 UV-I 4,6 C 4,4 C 19,6 km/h (3 Bft)
27.11.2011 20:35 8,3 C 10,9 C 8,1 C 8,0 C 6,8 C 0,0 C 77 % 79 % 0 % 1020,2 hPa 0,0 l/m 10,0 km/h (2 Bft) W 270 0 min 0,0 UV-I 4,5 C 4,8 C 13,8 km/h (3 Bft)
27.11.2011 20:40 8,3 C 10,9 C 8,0 C 8,0 C 6,7 C 0,0 C 77 % 79 % 0 % 1021,2 hPa 0,0 l/m 10,3 km/h (2 Bft) SW 225 0 min 0,0 UV-I 4,5 C 4,6 C 14,0 km/h (3 Bft)
27.11.2011 20:45 8,0 C 11,0 C 7,9 C 7,7 C 6,3 C 0,0 C 76 % 79 % 0 % 1021,2 hPa 0,0 l/m 9,8 km/h (2 Bft) S-SW 202 0 min 0,0 UV-I 4,0 C 4,3 C 9,2 km/h (2 Bft)
27.11.2011 20:50 7,9 C 11,0 C 7,8 C 7,5 C 6,2 C 0,0 C 77 % 80 % 0 % 1021,2 hPa 0,0 l/m 9,2 km/h (2 Bft) W 270 0 min 0,0 UV-I 4,1 C 4,3 C 14,5 km/h (3 Bft)
27.11.2011 20:55 7,8 C 11,0 C 7,6 C 7,4 C 5,8 C 0,0 C 77 % 80 % 0 % 1021,2 hPa 0,0 l/m 9,3 km/h (2 Bft) W-SW 247 0 min 0,0 UV-I 4,0 C 3,8 C 8,2 km/h (2 Bft)
27.11.2011 21:00 7,7 C 11,0 C 7,5 C 7,2 C 5,5 C 0,0 C 78 % 80 % 0 % 1021,9 hPa 0,0 l/m 10,0 km/h (2 Bft) W-SW 247 0 min 0,0 UV-I 4,1 C 3,3 C 9,7 km/h (2 Bft)
27.11.2011 21:10 7,5 C 11,0 C 7,3 C 6,9 C 5,8 C 0,0 C 78 % 81 % 0 % 1021,9 hPa 0,0 l/m 7,2 km/h (2 Bft) S-SW 202 0 min 0,0 UV-I 3,9 C 4,3 C 13,7 km/h (3 Bft)
27.11.2011 21:15 7,3 C 11,0 C 7,2 C 6,9 C 5,2 C 0,0 C 78 % 81 % 0 % 1021,9 hPa 0,0 l/m 8,7 km/h (2 Bft) S-SW 202 0 min 0,0 UV-I 3,7 C 3,2 C 12,2 km/h (2 Bft)
27.11.2011 21:20 7,2 C 11,0 C 7,1 C 6,7 C 5,0 C 0,0 C 79 % 81 % 0 % 1022,1 hPa 0,0 l/m 9,7 km/h (2 Bft) W 270 0 min 0,0 UV-I 3,8 C 2,7 C 12,1 km/h (2 Bft)
27.11.2011 21:25 7,2 C 11,0 C 7,0 C 6,5 C 5,0 C 0,0 C 79 % 82 % 0 % 1022,1 hPa 0,0 l/m 9,5 km/h (2 Bft) SW 225 0 min 0,0 UV-I 3,8 C 2,8 C 11,9 km/h (2 Bft)
27.11.2011 21:30 7,2 C 11,0 C 7,1 C 6,7 C 5,1 C 0,0 C 79 % 82 % 0 % 1022,1 hPa 0,0 l/m 10,0 km/h (2 Bft) SW 225 0 min 0,0 UV-I 3,8 C 2,8 C 13,5 km/h (3 Bft)
27.11.2011 21:35 7,2 C 11,1 C 7,1 C 6,5 C 5,1 C 0,0 C 80 % 82 % 0 % 1022,1 hPa 0,0 l/m 10,0 km/h (2 Bft) W 270 0 min 0,0 UV-I 4,0 C 2,8 C 14,8 km/h (3 Bft)
27.11.2011 21:40 7,2 C 11,1 C 7,1 C 6,7 C 5,3 C 0,0 C 80 % 83 % 0 % 1022,1 hPa 0,0 l/m 8,9 km/h (2 Bft) W-SW 247 0 min 0,0 UV-I 4,0 C 3,3 C 9,0 km/h (2 Bft)
27.11.2011 21:45 7,2 C 11,1 C 7,1 C 6,8 C 5,4 C 0,0 C 81 % 83 % 0 % 1022,1 hPa 0,0 l/m 8,2 km/h (2 Bft) S-SO 157 0 min 0,0 UV-I 4,2 C 3,6 C 17,4 km/h (3 Bft)
27.11.2011 21:50 7,1 C 11,1 C 7,0 C 6,5 C 5,4 C 0,0 C 81 % 83 % 0 % 1022,1 hPa 0,0 l/m 8,2 km/h (2 Bft) S 180 0 min 0,0 UV-I 4,1 C 3,6 C 13,0 km/h (3 Bft)
27.11.2011 21:55 7,1 C 11,1 C 6,9 C 6,7 C 5,2 C 0,0 C 81 % 83 % 0 % 1022,1 hPa 0,0 l/m 8,5 km/h (2 Bft) W-SW 247 0 min 0,0 UV-I 4,1 C 3,2 C 9,0 km/h (2 Bft)
27.11.2011 22:00 7,1 C 11,1 C 6,8 C 6,7 C 5,3 C 0,0 C 81 % 83 % 0 % 1023,2 hPa 0,0 l/m 7,9 km/h (2 Bft) W-SW 247 0 min 0,0 UV-I 4,1 C 3,5 C 11,7 km/h (2 Bft)
27.11.2011 22:10 7,0 C 11,1 C 6,8 C 6,4 C 5,2 C 0,0 C 81 % 84 % 0 % 1023,2 hPa 0,0 l/m 7,4 km/h (2 Bft) W-SW 247 0 min 0,0 UV-I 4,0 C 3,5 C 9,7 km/h (2 Bft)
27.11.2011 22:15 6,9 C 11,1 C 6,7 C 6,4 C 4,9 C 0,0 C 82 % 84 % 0 % 1023,2 hPa 0,0 l/m 8,0 km/h (2 Bft) W-SW 247 0 min 0,0 UV-I 4,0 C 3,0 C 11,4 km/h (2 Bft)
27.11.2011 22:20 6,9 C 11,1 C 6,7 C 6,4 C 4,8 C 0,0 C 82 % 84 % 0 % 1023,3 hPa 0,0 l/m 8,2 km/h (2 Bft) W-SW 247 0 min 0,0 UV-I 4,0 C 2,8 C 8,7 km/h (2 Bft)
27.11.2011 22:25 7,2 C 11,1 C 6,8 C 6,6 C 4,7 C 0,0 C 82 % 85 % 0 % 1023,3 hPa 0,0 l/m 10,1 km/h (2 Bft) W-SW 247 0 min 0,0 UV-I 4,3 C 2,3 C 13,5 km/h (3 Bft)
27.11.2011 22:30 7,4 C 11,1 C 7,1 C 6,8 C 4,9 C 0,0 C 81 % 84 % 0 % 1023,3 hPa 0,0 l/m 11,3 km/h (2 Bft) W-SW 247 0 min 0,0 UV-I 4,4 C 2,3 C 14,3 km/h (3 Bft)
27.11.2011 22:35 7,6 C 11,1 C 7,3 C 7,0 C 5,4 C 0,0 C 80 % 83 % 0 % 1023,3 hPa 0,0 l/m 11,1 km/h (2 Bft) W-SW 247 0 min 0,0 UV-I 4,4 C 2,9 C 16,9 km/h (3 Bft)
27.11.2011 22:40 7,7 C 11,1 C 7,3 C 7,2 C 5,7 C 0,0 C 80 % 83 % 0 % 1023,8 hPa 0,0 l/m 11,1 km/h (2 Bft) SW 225 0 min 0,0 UV-I 4,5 C 3,3 C 15,8 km/h (3 Bft)
27.11.2011 22:45 7,7 C 11,1 C 7,4 C 7,3 C 5,8 C 0,0 C 79 % 82 % 0 % 1023,8 hPa 0,0 l/m 11,6 km/h (2 Bft) S-SW 202 0 min 0,0 UV-I 4,3 C 3,3 C 9,8 km/h (2 Bft)
27.11.2011 22:50 7,9 C 11,1 C 7,6 C 7,5 C 5,9 C 0,0 C 78 % 82 % 0 % 1023,8 hPa 0,0 l/m 11,9 km/h (2 Bft) W-SW 247 0 min 0,0 UV-I 4,3 C 3,4 C 15,4 km/h (3 Bft)
27.11.2011 22:55 7,9 C 11,1 C 7,7 C 7,5 C 6,1 C 0,0 C 77 % 80 % 0 % 1023,8 hPa 0,0 l/m 12,2 km/h (2 Bft) W-SW 247 0 min 0,0 UV-I 4,1 C 3,6 C 18,3 km/h (3 Bft)
27.11.2011 23:00 8,0 C 11,1 C 7,9 C 7,4 C 6,1 C 0,0 C 76 % 80 % 0 % 1023,8 hPa 0,0 l/m 12,7 km/h (3 Bft) W 270 0 min 0,0 UV-I 4,0 C 3,5 C 14,5 km/h (3 Bft)
27.11.2011 23:10 8,0 C 11,1 C 7,8 C 7,6 C 6,3 C 0,0 C 75 % 78 % 0 % 1023,8 hPa 0,0 l/m 10,9 km/h (2 Bft) W 270 0 min 0,0 UV-I 3,8 C 4,0 C 15,0 km/h (3 Bft)
27.11.2011 23:15 8,1 C 11,1 C 7,8 C 7,7 C 6,2 C 0,0 C 74 % 77 % 0 % 1023,8 hPa 0,0 l/m 12,1 km/h (2 Bft) W-SW 247 0 min 0,0 UV-I 3,8 C 3,7 C 18,2 km/h (3 Bft)
27.11.2011 23:20 8,1 C 11,1 C 7,8 C 7,7 C 6,3 C 0,0 C 73 % 77 % 0 % 1023,8 hPa 0,0 l/m 12,6 km/h (3 Bft) W-SW 247 0 min 0,0 UV-I 3,6 C 3,7 C 14,5 km/h (3 Bft)
27.11.2011 23:25 8,0 C 11,1 C 7,9 C 7,4 C 6,3 C 0,0 C 73 % 77 % 0 % 1023,8 hPa 0,0 l/m 11,1 km/h (2 Bft) N-NO 22 0 min 0,0 UV-I 3,5 C 4,0 C 17,5 km/h (3 Bft)
27.11.2011 23:30 8,0 C 11,1 C 7,9 C 7,6 C 6,2 C 0,0 C 72 % 76 % 0 % 1023,8 hPa 0,0 l/m 11,4 km/h (2 Bft) W-SW 247 0 min 0,0 UV-I 3,3 C 3,8 C 14,5 km/h (3 Bft)
27.11.2011 23:35 8,0 C 11,0 C 7,7 C 7,6 C 5,9 C 0,0 C 72 % 75 % 0 % 1023,8 hPa 0,0 l/m 12,6 km/h (3 Bft) W-SW 247 0 min 0,0 UV-I 3,3 C 3,2 C 20,8 km/h (4 Bft)
27.11.2011 23:40 8,0 C 11,0 C 7,7 C 7,5 C 5,8 C 0,0 C 72 % 75 % 0 % 1024,1 hPa 0,0 l/m 11,9 km/h (2 Bft) SW 225 0 min 0,0 UV-I 3,3 C 3,2 C 14,3 km/h (3 Bft)
27.11.2011 23:45 7,9 C 11,0 C 7,7 C 7,4 C 5,4 C 0,0 C 72 % 75 % 0 % 1024,1 hPa 0,0 l/m 12,9 km/h (3 Bft) W 270 0 min 0,0 UV-I 3,2 C 2,6 C 12,6 km/h (3 Bft)
27.11.2011 23:50 7,9 C 11,0 C 7,5 C 7,3 C 5,3 C 0,0 C 72 % 75 % 0 % 1024,1 hPa 0,0 l/m 12,4 km/h (3 Bft) W-SW 247 0 min 0,0 UV-I 3,2 C 2,5 C 17,7 km/h (3 Bft)
27.11.2011 23:55 7,7 C 11,0 C 7,5 C 7,1 C 5,2 C 0,0 C 72 % 75 % 0 % 1024,1 hPa 0,0 l/m 11,7 km/h (2 Bft) W-SW 247 0 min 0,0 UV-I 3,0 C 2,6 C 11,9 km/h (2 Bft)
_ Min-Zeit 07:55 10:34 07:50 07:25 08:00 00:00 12:30 13:00 00:00 13:40 - 03:25 - - - 00:00 08:00 08:00 02:40
Minimum _ 4,8 C 10,1 C 4,7 C 4,2 C 2,2 C 0,0 C 63 % 66 % 0 % 1017,8 hPa - 4,8 km/h (1 Bft) - - - 0,0 UV-I 1,1 C -0,7 C 2,7 km/h (1 Bft)
_ Max-Zeit 14:15 21:35 14:10 13:35 13:40 11:25 22:15 22:25 11:25 00:40 00:00 16:16 - - 00:00 00:00 20:30 13:40 16:16
Maximum _ 9,7 C 11,1 C 9,6 C 10,3 C 9,9 C 1,0 C 82 % 85 % 26 % 1024,9 hPa 0,0 l/m 21,9 km/h
W-SW (4 Bft)
- - 0 min 0,0 UV-I 4,6 C 8,2 C 43,5 km/h
W-SW (6 Bft)
Durchschnitt _ 7,2 C 10,5 C 7,0 C 6,8 C 5,7 C 0,0 C 74 % 77 % 1 % 1020,9 hPa #0,0 l/m 10,8 km/h (2 Bft) W-SW - #0 min. 0,0 UV-I 2,9 C 3,5 C 14,9 km/h (3 Bft)
2011 www.wetterstation-wechselburg.de